Regional Weather Roundup
Issued by NWS

Home | Current Version | Previous Version | Text Only | Print | Product List | Glossary Off
Versions: 1 2 3 4 5 6 7 8 9 10 11 12 13 14 15 16 17 18 19 20 21 22 23 24 25 26 27 28 29 30 31 32 33 34 35 36 37 38 39 40 41 42 43 44 45 46 47 48 49 50

215
ASUS43 KOAX 102002
RWRNE

WEATHER ROUNDUP FOR NEBRASKA
NATIONAL WEATHER SERVICE OMAHA NE
200 PM CST WED FEB 10 2016

NOTES: SATELLITE DATA IS BEING USED TO AUGMENT CLOUD COVER ABOVE
       12000 FEET.
       "FAIR" INDICATES FEW OR NO CLOUDS BELOW 12,000 FEET WITH NO
       SIGNIFICANT WEATHER AND/OR OBSTRUCTIONS TO VISIBILITY.

  * THESE STATIONS DO NOT REPORT WEATHER SUCH AS RAIN...SNOW OR FOG.

NEZ001>004-019>022-054>056-102100-
NEBRASKA PANHANDLE

CITY           SKY/WX    TMP DP  RH WIND       PRES   REMARKS
SCOTTSBLUFF    SUNNY     60  24  25 W16G24    30.01F
ALLIANCE       SUNNY     40  32  73 W12       29.98F WCI  33
CHADRON        CLOUDY    62  25  24 W24G33    29.95F
KIMBALL        SUNNY     56  26  31 NW16G26   30.05F
SIDNEY         SUNNY     50  29  44 NW15      30.02F
$$

NEZ057>060-069>072-079>082-102100-
SOUTHWEST NEBRASKA

CITY           SKY/WX    TMP DP  RH WIND       PRES   REMARKS
NORTH PLATTE   SUNNY     50  30  46 W17       29.90F
IMPERIAL       SUNNY     50  30  46 W14       29.98F
LEXINGTON      SUNNY     46  31  55 W16       29.90S
MCCOOK         SUNNY     50  29  44 NW15      29.94F
$$

NEZ005>010-023>029-035>040-094-102100-
NORTH CENTRAL NEBRASKA

CITY           SKY/WX    TMP DP  RH WIND       PRES   REMARKS
VALENTINE      SUNNY     55  28  35 NW18G24   29.87S
AINSWORTH      SUNNY     57  26  29 NW21G31   29.85S
BROKEN BOW     SUNNY     58  30  34 NW14      29.85F
ORD            SUNNY     53  30  41 NW13      29.83F
$$

NEZ041-046>049-061>064-073>077-083>087-102100-
SOUTH CENTRAL NEBRASKA

CITY           SKY/WX    TMP DP  RH WIND       PRES   REMARKS
GRAND ISLAND   SUNNY     45  31  58 W7        29.85F
HASTINGS       SUNNY     45  31  58 W9        29.86F
HEBRON         SUNNY     46  32  58 W7        29.88F
KEARNEY *      SUNNY     48  30  49 W8        29.87F
YORK           SUNNY     45  34  65 NW9       29.85F
$$

NEZ011>018-030>034-042>045-102100-
NORTHEAST NEBRASKA

CITY           SKY/WX    TMP DP  RH WIND       PRES   REMARKS
NORFOLK        SUNNY     35  26  69 E5        29.87R WCI  31
BLAIR          SUNNY     35  22  60 SE3       29.89S
COLUMBUS *     SUNNY     39  25  56 NE7       29.88S WCI  34
FREMONT        SUNNY     33  22  64 CALM      29.91R
TEKAMAH        SUNNY     32  22  66 E12       29.92F WCI  23
$$

NEZ050>053-065>068-078-088>093-102100-
SOUTHEAST NEBRASKA

CITY           SKY/WX    TMP DP  RH WIND       PRES   REMARKS
LINCOLN        SUNNY     40  28  62 NE6       29.90S
OMAHA EPPLEY   MOSUNNY   35  22  58 SE6       29.91F WCI  30
BEATRICE       SUNNY     48  32  53 W12       29.86F
FALLS CITY     SUNNY     49  26  41 W5        29.88F
$$

NEZ044-045-051>053-067-102100-
OMAHA AREA

CITY           SKY/WX    TMP DP  RH WIND       PRES   REMARKS
OMAHA EPPLEY   MOSUNNY   35  22  58 SE6       29.91F WCI  30
BLAIR          SUNNY     35  22  60 SE3       29.89S
FREMONT        SUNNY     33  22  64 CALM      29.91R
OFFUTT AFB     SUNNY     38  22  52 SE6       29.90F WCI  34
$$




USA.gov is the U.S. government's official web portal to all federal, state and local government web resources and services.